チュリュモフ-ゲラシメンコ彗星

67P/Churyumov-Gerasimenko (2009)

English version
Home page
Updated on February 10, 2013

---------------------------------------------------------------------

・ プロフィール

・ 写真集

・ 軌道要素

Epoch 2009 Feb. 18.0 TT = JDT 2454880.5
T 2009 Feb. 28.36493 TT                                 MPC
q   1.2465134            (2000.0)            P               Q
n   0.15286084     Peri.   12.69909     +0.45686811     -0.88453567
a   3.4642180      Node    50.19772     +0.80503875     +0.36611345
e   0.6401747      Incl.    7.04087     +0.37839680     +0.28906329
P   6.45
From 2745 observations 1969 Sept. 11-2012 Apr. 25, mean residual 0".8.
     Nongravitational parameters A1 = +0.08, A2 = +0.0100.

・ 星図

・ 光度変化

        m1 = 8.0 + 5 logΔ + 17.0 log r(t - 40)  [   ,550]  (              〜2010年 9月 1日)
        H = 15.0  G = 0.15                       [550,   ]  (2010年 9月 1日〜              )

---------------------------------------------------------------------

軌道要素はM.P.E.C. 2012-J16に掲載されたものです。
星図は StellaNavigator Ver.2.0 for Windows (アストロアーツ編著 / アスキー出版局刊) で作成したものです。
光度グラフはComet for Windowsで作成したものです。

---------------------------------------------------------------------

Copyright(C) Seiichi Yoshida (comet@aerith.net). All rights reserved.